Flag for U.S.A. Weather past 2 weeks in Philadelphia, Pennsylvania, U.S.A.

Now
72 °F

Mostly cloudy.


Feels Like: 70 °F
Forecast: 67 / 75 °F
Wind: 3 mph from Southeast

Location: Philadelphia International Airport

Current Time: Aug 2, 2014 at 12:43:05 AM

Latest Report: Aug 1, 2014 at 11:54 PM


Visibility: 8 mi

Pressure: 30.18 "Hg

Humidity: 87%

Dew point: 68 °F

Location of PhiladelphiaLocation

Historic Weather in Philadelphia — Graph

°F

Philadelphia temperature yesterday

Maximum temperature yesterday: 81 °F (at 12:54 PM)
Minimum temperature yesterday: 70 °F (at 3:54 PM)
Average temperature yesterday: 75 °F

Past Weeks' High & Low Weather Summary

 TemperatureHumidityPressure
High92 °F (Jul 23, 4:54 PM)93% (Jul 28, 12:54 AM)30.23 "Hg (Jul 28, 12:54 AM)
Low62 °F (Jul 30, 5:54 AM)22% (Jul 18, 5:54 PM)29.56 "Hg (Jul 28, 4:54 AM)
Average75 °F60%30.01 "Hg
* Reported Jul 17 10:54 PM — Aug 1 10:54 PM, Philadelphia, Weather by CustomWeather, © 2014

Note: Actual official high and low records may vary slightly from our data, if they occured in-between our weather recording intervals... More about our weather records

Advertising

Philadelphia weather history for previous 24 hours

 ConditionsComfort  
Time TempWeatherWind HumidityBarometerVisibility
10:54 PM
Aug 1
73 °FOvercast.No wind84%30.18 "Hg9 mi
9:54 PM73 °FPartly cloudy.3 mph84%30.19 "Hg10 mi
8:54 PM72 °FBroken clouds.5 mph87%30.18 "Hg10 mi
7:54 PM74 °FPartly sunny.5 mph82%30.18 "Hg10 mi
6:54 PM74 °FCloudy.3 mph82%30.19 "Hg10 mi
5:54 PM73 °FBroken clouds.6 mph81%30.19 "Hg10 mi
4:54 PM71 °FLight rain. More clouds than sun.6 mph84%30.20 "Hg6 mi
3:54 PM70 °FHeavy rain. Fog.13 mph87%30.20 "Hg4 mi
2:54 PM78 °FLight rain. Cloudy.12 mph74%30.18 "Hg10 mi
1:54 PM81 °FCloudy.7 mph62%30.17 "Hg10 mi
12:54 PM81 °FCloudy.6 mph67%30.18 "Hg10 mi
11:54 AM80 °FCloudy.5 mph69%30.20 "Hg10 mi
10:54 AM80 °FBroken clouds.6 mph69%30.19 "Hg10 mi
9:54 AM78 °FBroken clouds.7 mph71%30.18 "Hg10 mi
8:54 AM76 °FPartly sunny.6 mph77%30.18 "Hg9 mi
7:54 AM73 °FPartly sunny.6 mph81%30.18 "Hg8 mi
6:54 AM73 °FPassing clouds.6 mph79%30.17 "Hg10 mi
5:54 AM72 °FPartly cloudy.3 mph84%30.16 "Hg10 mi
4:54 AM72 °FMostly cloudy.7 mph81%30.16 "Hg10 mi
3:54 AM72 °FMostly cloudy.7 mph84%30.16 "Hg10 mi
2:54 AM72 °FPartly cloudy.5 mph84%30.16 "Hg10 mi
1:54 AM73 °FMostly cloudy.5 mph81%30.16 "Hg10 mi
12:54 AM73 °FPartly cloudy.5 mph81%30.15 "Hg10 mi
Weather by CustomWeather, © 2014

See weather overviewHow to use our weather pages